Dewpoint
46 43 39 38 38 34 34 33 31 33 33 29 30 28 29 30 29 29 29 30 30 31 35 36 36 36 37 37 36 37 41 59 66 67 66 65 64 64 63 63 62 59 57 58
42 39 43 41 39 36 35 34 32 32 30 29 28 27 28 29 29 29 29 30 30 30 31 32 34 35 36 36 36 36 38 46 60 65 65 65 64 64 64 63 62 61 57 57
38 40 43 41 41 39 38 35 32 31 29 28 27 25 23 24 25 25 27 28 29 29 28 29 30 31 32 34 35 36 36 41 55 63 64 60 61 60 63 61 62 61 59 57
34 41 41 41 39 39 35 33 30 28 27 25 27 23 25 25 22 23 22 22 23 23 24 27 29 30 30 31 33 35 37 38 44 60 63 62 62 61 62 62 62 61 59 58
34 38 40 39 38 37 30 31 29 28 26 22 24 22 22 21 17 19 21 24 25 24 24 28 29 28 31 32 32 32 34 38 41 46 62 62 61 61 59 61 60 59 57 58
33 34 34 32 33 32 31 27 27 26 24 17 21 20 15 16 19 21 23 26 30 29 29 31 36 39 39 40 40 38 33 33 36 42 51 60 61 60 56 56 59 56 55 57
32 32 33 33 30 31 29 29 25 13 14 15 24 22 19 22 24 24 24 27 30 32 33 35 36 37 38 38 37 38 40 40 40 40 41 51 59 59 56 57 58 57 55 55
27 28 31 32 30 29 27 26 19 9 14 16 23 21 17 23 21 25 27 28 28 30 33 34 35 36 36 37 38 38 38 40 41 42 41 42 48 55 57 57 57 57 55 55
25 25 32 32 32 31 28 23 26 21 18 15 18 18 12 22 23 24 26 27 28 29 31 34 36 37 36 36 38 39 39 40 41 43 44 43 44 49 54 55 56 56 54 54
28 26 31 32 32 32 29 29 22 17 10 10 12 15 10 17 21 25 26 27 29 32 36 38 39 39 37 38 40 40 40 40 42 46 46 46 46 49 52 53 52 51 49 48
30 28 31 32 29 28 28 26 26 24 21 14 11 9 20 19 24 25 26 28 32 38 41 42 42 41 41 42 40 39 40 44 46 47 48 47 47 49 48 48 46 45 45 45
30 29 29 29 29 30 29 27 25 16 15 23 21 18 24 25 26 26 28 31 37 43 42 41 41 42 42 40 41 43 40 41 42 44 45 45 47 47 46 44 44 44 43 43
28 24 18 26 28 28 28 28 25 24 21 14 15 16 24 25 25 27 30 34 42 41 41 41 42 42 42 41 38 37 37 38 40 42 43 43 45 45 45 45 44 43 42 40
32 25 21 18 21 26 24 28 26 24 18 19 20 21 23 24 26 28 31 41 40 39 38 36 35 41 40 36 36 37 37 37 38 39 41 42 43 43 42 41 39 37 36 34
29 22 23 26 27 26 26 27 27 21 24 19 21 24 25 27 28 30 35 40 38 35 31 31 30 38 35 32 34 35 36 36 36 35 35 36 37 36 37 36 35 33 32 32
29 26 26 22 26 28 27 28 28 28 27 27 27 27 28 29 31 37 41 39 35 30 29 27 32 37 31 30 31 31 31 33 34 33 33 32 33 33 33 33 34 34 34 35
30 27 23 18 25 26 24 27 27 28 29 28 26 27 29 32 36 40 39 36 30 28 26 27 29 28 29 30 32 33 32 33 33 33 34 34 34 33 33 32 33 33 35 35
29 27 27 20 22 17 21 31 28 27 27 29 29 29 30 33 38 39 36 29 27 27 26 25 25 25 26 30 33 34 35 35 35 35 35 35 35 35 35 34 34 34 34 34
32 32 27 24 20 21 26 31 30 29 31 31 30 31 34 38 39 36 33 27 26 27 28 28 29 29 29 30 32 33 33 34 35 35 35 36 36 35 34 33 33 32 34 33
36 33 27 27 22 20 25 33 36 35 32 34 36 36 36 38 35 36 34 30 30 29 30 31 32 32 32 32 34 35 35 35 35 36 36 36 35 35 34 34 34 34 34 33
33 34 29 26 24 25 27 30 38 31 31 36 36 36 35 36 38 36 34 32 32 32 33 34 34 34 34 35 35 34 34 35 35 36 36 35 35 34 33 33 33 32 32 30
28 28 29 29 26 21 30 37 35 35 37 37 36 35 36 37 35 36 36 34 34 34 34 35 35 34 35 34 34 34 33 35 36 35 34 34 35 35 34 31 29 23 18 15
30 31 28 27 26 29 32 32 33 37 36 35 35 35 35 37 37 36 37 35 35 35 35 36 35 35 35 34 35 34 34 35 34 33 31 31 29 24 20 17 15 12 11 12
32 34 34 33 33 33 34 36 36 36 36 36 35 34 36 36 35 33 37 36 35 35 34 35 34 34 34 34 34 33 33 30 23 18 17 16 15 14 13 14 14 13 13 12
34 34 34 34 34 35 35 36 37 36 36 35 34 36 37 37 34 30 36 36 36 34 34 34 33 33 33 33 32 26 23 20 18 18 17 16 15 15 15 14 11 9 9 11
33 32 31 30 34 35 35 36 38 36 35 35 34 34 36 37 34 29 33 30 32 26 24 26 27 28 27 27 23 20 20 19 17 16 15 16 17 17 18 19 20 24 23 24
Lifted_Index
1 1 2 2 3 3 4 4 5 5 5 6 6 6 6 6 6 6 6 6 6 6 6 6 6 7 7 7 7 7 6 4 0 -2 -2 -3 -3 -3 -3 -3 -3 -3 -3 -3
1 1 1 2 2 3 4 4 4 5 5 6 6 6 6 6 6 6 7 7 7 7 7 7 7 7 7 7 7 7 7 5 2 -1 -2 -2 -2 -2 -3 -3 -3 -3 -3 -3
1 1 1 1 2 2 3 3 4 4 5 5 5 5 5 6 6 7 7 7 7 8 8 8 8 8 8 8 7 7 7 6 4 1 -1 -2 -2 -2 -2 -3 -3 -3 -3 -3
0 1 1 1 1 2 3 3 4 4 5 5 5 4 4 5 6 7 8 8 8 9 9 9 9 9 9 8 8 8 8 7 6 3 -0 -1 -1 -2 -2 -2 -3 -3 -3 -3
1 1 1 1 1 2 3 3 4 4 5 5 5 4 4 5 6 7 8 8 9 9 9 9 9 9 9 9 9 9 8 8 7 5 2 -0 -1 -1 -1 -2 -2 -3 -3 -3
1 1 1 2 2 2 3 3 3 4 4 4 4 4 4 4 6 7 8 8 8 9 9 9 9 9 8 8 8 8 8 8 8 7 5 2 0 -0 -1 -1 -1 -2 -2 -2
2 2 2 2 3 3 3 3 3 2 2 3 3 4 4 5 6 7 8 8 8 8 8 8 8 8 8 8 8 8 8 8 8 8 7 5 3 1 0 -0 -0 -0 -1 -1
2 2 3 3 3 3 3 3 3 2 2 2 3 3 4 6 6 7 8 8 7 7 7 7 7 7 7 8 8 8 8 8 8 8 8 7 6 4 2 1 1 1 0 -0
2 2 3 3 4 4 4 4 4 3 2 2 2 3 4 5 6 7 7 7 7 7 7 7 7 7 7 7 8 7 7 7 7 7 7 7 7 6 4 3 2 2 1 1
2 3 3 4 4 4 5 5 5 4 2 1 1 2 4 5 6 6 6 6 6 6 6 6 7 7 7 8 8 7 7 7 7 7 6 6 6 5 5 4 3 3 2 2
3 3 3 4 4 5 5 5 5 4 3 1 1 2 4 5 6 6 6 5 5 5 6 6 7 7 8 8 8 7 7 7 7 6 6 5 4 4 4 4 3 3 2 2
4 3 3 4 4 5 5 5 5 4 3 2 2 3 4 6 6 6 5 5 5 6 6 7 7 8 8 8 7 7 6 6 6 5 5 4 3 2 2 2 2 2 2 2
4 4 3 3 4 4 5 5 5 5 4 3 2 3 4 5 5 5 5 5 6 6 6 7 8 8 8 7 6 6 5 4 4 4 3 3 2 1 1 1 1 2 2 2
4 4 4 3 4 4 4 5 5 5 4 3 3 3 4 4 4 5 5 5 6 6 6 7 8 8 8 7 6 5 4 3 2 2 2 2 1 0 0 0 1 1 1 1
5 5 5 4 4 4 4 4 5 5 4 3 3 3 3 4 4 5 5 5 6 6 7 7 8 8 8 6 5 5 4 3 2 2 2 2 1 0 -0 0 0 0 0 1
5 5 5 4 4 4 4 4 5 5 4 3 2 3 3 4 4 4 5 5 6 6 7 8 8 8 7 6 5 5 4 3 3 2 2 2 2 1 1 1 1 1 1 2
5 5 4 4 3 3 3 4 4 4 3 3 2 3 3 4 4 4 5 5 5 6 7 8 8 8 7 7 6 5 5 4 4 3 3 3 3 3 3 3 3 3 4 4
5 4 4 3 3 3 3 3 3 3 2 2 3 3 3 4 4 4 4 5 5 6 7 8 8 8 7 7 7 6 6 5 5 5 5 5 5 5 5 5 6 6 7 7
5 4 4 3 3 2 2 2 2 2 2 2 3 3 3 3 3 3 4 5 5 6 6 7 8 8 8 7 7 7 7 7 6 6 7 7 8 7 7 8 8 9 10 10
5 4 4 3 2 2 2 2 2 2 2 3 3 3 3 3 3 3 4 5 5 6 6 7 8 8 8 8 8 8 8 8 8 9 9 10 10 9 9 10 10 11 11 12
4 4 3 3 3 3 3 2 2 2 2 3 3 3 3 3 3 3 4 4 5 5 6 7 8 8 8 9 9 9 9 10 10 11 11 11 11 11 11 11 12 12 13 13
3 3 3 3 3 3 3 3 2 2 3 3 3 3 3 3 3 3 3 4 5 5 6 7 7 8 9 10 10 9 10 11 11 12 12 12 12 12 12 13 13 14 15 15
3 3 3 3 3 3 3 3 3 3 3 3 3 3 3 3 3 2 3 3 4 5 6 7 7 8 9 10 10 9 10 11 11 11 11 12 12 13 14 15 15 16 16 16
4 3 3 3 3 3 3 3 3 3 3 3 3 3 3 3 3 2 2 3 4 5 5 6 7 7 8 9 10 10 11 11 11 11 11 12 13 14 16 17 17 17 17 17
4 4 3 3 4 4 4 3 3 3 3 4 4 4 4 3 3 2 2 3 3 4 5 6 6 7 7 8 10 11 12 12 12 12 12 14 15 16 17 17 17 17 17 18
4 4 3 4 4 4 4 4 4 4 4 4 4 4 4 4 3 2 2 3 3 4 5 6 6 7 7 8 10 11 12 13 12 12 13 15 16 17 17 17 17 17 18 18